Time,TemperatureF,DewpointF,PressureIn,WindDirection,WindDirectionDegrees,WindSpeedMPH,WindSpeedGustMPH,Humidity,HourlyPrecipIn,Conditions,Clouds,dailyrainin,SoftwareType,DateUTC
2013-02-24 00:01:00,20.0,16.0,29.99,SW,232,0.0,0.0,86,0.00,,,0.10,,2013-02-24 06:01:00,
2013-02-24 00:11:00,20.0,16.0,29.99,SW,232,0.0,0.0,86,0.00,,,0.10,,2013-02-24 06:11:00,
2013-02-24 00:21:00,19.0,16.0,30.02,SW,232,0.0,3.0,86,0.00,,,0.10,,2013-02-24 06:21:00,
2013-02-24 00:31:00,19.0,16.0,30.02,SW,232,0.0,3.0,86,0.00,,,0.10,,2013-02-24 06:31:00,
2013-02-24 00:42:00,19.0,16.0,30.02,SW,232,0.0,3.0,86,0.00,,,0.10,,2013-02-24 06:42:00,
2013-02-24 00:52:00,19.0,16.0,30.01,SW,232,0.0,1.0,87,0.00,,,0.10,,2013-02-24 06:52:00,
2013-02-24 01:01:00,19.0,16.0,30.01,SW,232,0.0,1.0,87,0.00,,,0.10,,2013-02-24 07:01:00,
2013-02-24 01:12:00,19.0,16.0,30.01,SW,232,0.0,1.0,87,0.00,,,0.10,,2013-02-24 07:12:00,
2013-02-24 01:21:00,19.0,16.0,30.03,SW,232,0.0,2.0,88,0.00,,,0.10,,2013-02-24 07:21:00,
2013-02-24 01:31:00,19.0,16.0,30.03,SW,232,0.0,2.0,88,0.00,,,0.10,,2013-02-24 07:31:00,
2013-02-24 01:42:00,19.0,16.0,30.03,SW,232,0.0,2.0,88,0.00,,,0.10,,2013-02-24 07:42:00,
2013-02-24 01:52:00,18.0,15.0,30.03,SW,232,2.0,4.0,88,0.00,,,0.10,,2013-02-24 07:52:00,
2013-02-24 02:01:00,18.0,15.0,30.03,SW,232,2.0,4.0,88,0.00,,,0.10,,2013-02-24 08:01:00,
2013-02-24 02:11:00,18.0,15.0,30.03,SW,232,2.0,4.0,88,0.00,,,0.10,,2013-02-24 08:11:00,
2013-02-24 02:22:00,18.0,15.0,30.03,SW,232,0.0,0.0,88,0.00,,,0.10,,2013-02-24 08:22:00,
2013-02-24 02:31:00,18.0,15.0,30.03,SW,232,0.0,0.0,88,0.00,,,0.10,,2013-02-24 08:31:00,
2013-02-24 02:42:00,18.0,15.0,30.03,SW,232,0.0,0.0,88,0.00,,,0.10,,2013-02-24 08:42:00,
2013-02-24 02:54:00,18.0,15.0,30.03,SW,232,0.0,0.0,88,0.00,,,0.10,,2013-02-24 08:54:00,
2013-02-24 03:01:00,18.0,15.0,30.03,SW,232,0.0,0.0,88,0.00,,,0.10,,2013-02-24 09:01:00,
2013-02-24 03:11:00,18.0,15.0,30.03,SW,232,0.0,0.0,88,0.00,,,0.10,,2013-02-24 09:11:00,
2013-02-24 03:21:00,17.0,14.0,30.03,SW,232,0.0,0.0,88,0.00,,,0.10,,2013-02-24 09:21:00,
2013-02-24 03:31:00,17.0,14.0,30.03,SW,232,0.0,0.0,88,0.00,,,0.10,,2013-02-24 09:31:00,
2013-02-24 03:42:00,17.0,14.0,30.03,SW,232,0.0,0.0,88,0.00,,,0.10,,2013-02-24 09:42:00,
2013-02-24 03:52:00,17.0,14.0,30.03,SW,232,0.0,0.0,89,0.00,,,0.10,,2013-02-24 09:52:00,
2013-02-24 04:01:00,17.0,14.0,30.03,SW,232,0.0,0.0,89,0.00,,,0.10,,2013-02-24 10:01:00,
2013-02-24 04:11:00,17.0,14.0,30.03,SW,232,0.0,0.0,89,0.00,,,0.10,,2013-02-24 10:11:00,
2013-02-24 04:21:00,17.0,14.0,30.04,SW,232,0.0,0.0,89,0.00,,,0.10,,2013-02-24 10:21:00,
2013-02-24 04:31:00,17.0,14.0,30.04,SW,232,0.0,0.0,89,0.00,,,0.10,,2013-02-24 10:31:00,
2013-02-24 04:42:00,17.0,14.0,30.04,SW,232,0.0,0.0,89,0.00,,,0.10,,2013-02-24 10:42:00,
2013-02-24 04:52:00,17.0,14.0,30.04,SW,232,0.0,0.0,89,0.00,,,0.10,,2013-02-24 10:52:00,
2013-02-24 05:01:00,17.0,14.0,30.04,SW,232,0.0,0.0,89,0.00,,,0.10,,2013-02-24 11:01:00,
2013-02-24 05:11:00,17.0,14.0,30.04,SW,232,0.0,0.0,89,0.00,,,0.10,,2013-02-24 11:11:00,
2013-02-24 05:21:00,16.0,13.0,30.05,SW,232,0.0,0.0,88,0.00,,,0.10,,2013-02-24 11:21:00,
2013-02-24 05:32:00,16.0,13.0,30.05,SW,232,0.0,0.0,88,0.00,,,0.10,,2013-02-24 11:32:00,
2013-02-24 05:42:00,16.0,13.0,30.05,SW,232,0.0,0.0,88,0.00,,,0.10,,2013-02-24 11:42:00,
2013-02-24 05:53:00,16.0,13.0,30.07,SW,232,0.0,0.0,88,0.00,,,0.10,,2013-02-24 11:53:00,
2013-02-24 06:01:00,16.0,13.0,30.07,SW,232,0.0,0.0,88,0.00,,,0.10,,2013-02-24 12:01:00,
2013-02-24 06:11:00,16.0,13.0,30.07,SW,232,0.0,0.0,88,0.00,,,0.10,,2013-02-24 12:11:00,
2013-02-24 06:21:00,16.0,13.0,30.08,SW,232,0.0,1.0,89,0.00,,,0.10,,2013-02-24 12:21:00,
2013-02-24 06:32:00,16.0,13.0,30.08,SW,232,0.0,1.0,89,0.00,,,0.10,,2013-02-24 12:32:00,
2013-02-24 06:46:00,16.0,13.0,30.08,SW,232,0.0,1.0,89,0.00,,,0.10,,2013-02-24 12:46:00,
2013-02-24 06:56:00,15.0,12.0,30.08,SW,232,0.0,0.0,88,0.00,,,0.10,,2013-02-24 12:56:00,
2013-02-24 07:09:00,15.0,12.0,30.08,SW,232,0.0,0.0,88,0.00,,,0.10,,2013-02-24 13:09:00,
2013-02-24 07:26:00,16.0,13.0,30.09,SW,232,0.0,0.0,89,0.00,,,0.10,,2013-02-24 13:26:00,
2013-02-24 07:33:00,16.0,13.0,30.09,SW,232,0.0,0.0,89,0.00,,,0.10,,2013-02-24 13:33:00,
2013-02-24 07:45:00,16.0,13.0,30.09,SW,232,0.0,0.0,89,0.00,,,0.10,,2013-02-24 13:45:00,
2013-02-24 08:03:00,18.0,16.0,30.11,SW,232,0.0,1.0,90,0.00,,,0.10,,2013-02-24 14:03:00,
2013-02-24 08:13:00,21.0,18.0,30.12,SW,232,0.0,3.0,88,0.00,,,0.10,,2013-02-24 14:13:00,
2013-02-24 08:23:00,21.0,18.0,30.12,SW,232,0.0,3.0,88,0.00,,,0.10,,2013-02-24 14:23:00,
2013-02-24 08:45:00,21.0,18.0,30.12,SW,232,0.0,3.0,88,0.00,,,0.10,,2013-02-24 14:45:00,
2013-02-24 09:02:00,24.0,20.0,30.13,SW,232,0.0,2.0,83,0.00,,,0.10,,2013-02-24 15:02:00,
2013-02-24 09:13:00,26.0,20.0,30.14,SW,232,1.0,3.0,79,0.00,,,0.10,,2013-02-24 15:13:00,
2013-02-24 09:22:00,26.0,20.0,30.14,SW,232,1.0,3.0,79,0.00,,,0.10,,2013-02-24 15:22:00,
2013-02-24 09:32:00,26.0,20.0,30.14,SW,232,1.0,3.0,79,0.00,,,0.10,,2013-02-24 15:32:00,
2013-02-24 09:42:00,26.0,20.0,30.14,SW,232,1.0,3.0,79,0.00,,,0.10,,2013-02-24 15:42:00,
2013-02-24 09:53:00,28.0,20.0,30.14,SW,232,2.0,3.0,73,0.00,,,0.10,,2013-02-24 15:53:00,
2013-02-24 10:01:00,28.0,20.0,30.14,SW,232,2.0,3.0,73,0.00,,,0.10,,2013-02-24 16:01:00,
2013-02-24 10:11:00,30.0,21.0,30.14,SW,232,1.0,3.0,69,0.01,,,0.10,,2013-02-24 16:11:00,
2013-02-24 10:21:00,30.0,21.0,30.14,SW,232,1.0,3.0,69,0.01,,,0.10,,2013-02-24 16:21:00,
2013-02-24 10:32:00,30.0,21.0,30.14,SW,232,1.0,3.0,69,0.01,,,0.10,,2013-02-24 16:32:00,
2013-02-24 10:42:00,30.0,21.0,30.14,SW,232,1.0,3.0,69,0.01,,,0.10,,2013-02-24 16:42:00,
2013-02-24 10:52:00,32.0,22.0,30.13,NNW,332,3.0,4.0,65,0.02,,,0.11,,2013-02-24 16:52:00,
2013-02-24 11:01:00,32.0,22.0,30.13,NNW,332,3.0,4.0,65,0.02,,,0.11,,2013-02-24 17:01:00,
2013-02-24 11:11:00,32.0,22.0,30.13,NNW,332,3.0,4.0,65,0.02,,,0.11,,2013-02-24 17:11:00,
2013-02-24 11:21:00,35.0,22.0,30.12,ENE,64,3.0,7.0,59,0.01,,,0.11,,2013-02-24 17:21:00,
2013-02-24 11:32:00,35.0,22.0,30.12,ENE,64,3.0,7.0,59,0.01,,,0.11,,2013-02-24 17:32:00,
2013-02-24 11:42:00,35.0,22.0,30.12,ENE,64,3.0,7.0,59,0.01,,,0.11,,2013-02-24 17:42:00,
2013-02-24 11:52:00,35.0,23.0,30.13,ESE,121,2.0,5.0,61,0.02,,,0.13,,2013-02-24 17:52:00,
2013-02-24 12:01:00,35.0,23.0,30.13,ESE,121,2.0,5.0,61,0.02,,,0.13,,2013-02-24 18:01:00,
2013-02-24 12:11:00,35.0,23.0,30.13,ESE,121,2.0,5.0,61,0.02,,,0.13,,2013-02-24 18:11:00,
2013-02-24 12:22:00,35.0,23.0,30.13,South,176,4.0,7.0,60,0.02,,,0.11,,2013-02-24 18:22:00,
2013-02-24 12:31:00,35.0,23.0,30.13,South,176,4.0,7.0,60,0.02,,,0.11,,2013-02-24 18:31:00,
2013-02-24 12:42:00,35.0,23.0,30.13,South,176,4.0,7.0,60,0.02,,,0.11,,2013-02-24 18:42:00,
2013-02-24 12:52:00,36.0,22.0,30.13,SE,131,2.0,4.0,57,0.01,,,0.12,,2013-02-24 18:52:00,
2013-02-24 13:01:00,36.0,22.0,30.13,SE,131,2.0,4.0,57,0.01,,,0.12,,2013-02-24 19:01:00,
2013-02-24 13:11:00,36.0,22.0,30.13,SE,131,2.0,4.0,57,0.01,,,0.12,,2013-02-24 19:11:00,
2013-02-24 13:22:00,37.0,24.0,30.12,SSE,153,2.0,5.0,58,0.02,,,0.12,,2013-02-24 19:22:00,
2013-02-24 13:32:00,37.0,24.0,30.12,SSE,153,2.0,5.0,58,0.02,,,0.12,,2013-02-24 19:32:00,
2013-02-24 13:42:00,37.0,24.0,30.12,SSE,153,2.0,5.0,58,0.02,,,0.12,,2013-02-24 19:42:00,
2013-02-24 13:52:00,38.0,23.0,30.10,SE,145,3.0,5.0,54,0.02,,,0.13,,2013-02-24 19:52:00,
2013-02-24 14:02:00,38.0,23.0,30.10,SE,145,3.0,5.0,54,0.02,,,0.13,,2013-02-24 20:02:00,
2013-02-24 14:11:00,38.0,23.0,30.10,SE,145,3.0,5.0,54,0.02,,,0.13,,2013-02-24 20:11:00,
2013-02-24 14:21:00,39.0,25.0,30.10,SE,145,2.0,5.0,56,0.02,,,0.13,,2013-02-24 20:21:00,
2013-02-24 14:31:00,39.0,25.0,30.10,SE,145,2.0,5.0,56,0.02,,,0.13,,2013-02-24 20:31:00,
2013-02-24 14:42:00,39.0,25.0,30.10,SE,145,2.0,5.0,56,0.02,,,0.13,,2013-02-24 20:42:00,
2013-02-24 14:52:00,39.0,24.0,30.10,SE,143,1.0,5.0,55,0.03,,,0.15,,2013-02-24 20:52:00,
2013-02-24 15:01:00,39.0,24.0,30.10,SE,143,1.0,5.0,55,0.03,,,0.15,,2013-02-24 21:01:00,
2013-02-24 15:11:00,39.0,24.0,30.10,SE,143,1.0,5.0,55,0.03,,,0.15,,2013-02-24 21:11:00,
2013-02-24 15:21:00,40.0,24.0,30.09,SE,143,1.0,4.0,53,0.03,,,0.15,,2013-02-24 21:21:00,
2013-02-24 15:32:00,40.0,24.0,30.09,SE,143,1.0,4.0,53,0.03,,,0.15,,2013-02-24 21:32:00,
2013-02-24 15:42:00,40.0,24.0,30.09,SE,143,1.0,4.0,53,0.03,,,0.15,,2013-02-24 21:42:00,
2013-02-24 15:52:00,40.0,23.0,30.09,SE,143,2.0,4.0,51,0.02,,,0.16,,2013-02-24 21:52:00,
2013-02-24 16:01:00,40.0,23.0,30.09,SE,143,2.0,4.0,51,0.02,,,0.16,,2013-02-24 22:01:00,
2013-02-24 16:11:00,40.0,23.0,30.09,SE,143,2.0,4.0,51,0.02,,,0.16,,2013-02-24 22:11:00,
2013-02-24 16:21:00,40.0,25.0,30.09,SE,143,2.0,4.0,55,0.01,,,0.14,,2013-02-24 22:21:00,
2013-02-24 16:31:00,40.0,25.0,30.09,SE,143,2.0,4.0,55,0.01,,,0.14,,2013-02-24 22:31:00,
2013-02-24 16:42:00,40.0,25.0,30.09,SE,143,2.0,4.0,55,0.01,,,0.14,,2013-02-24 22:42:00,
2013-02-24 16:52:00,40.0,25.0,30.09,SE,143,3.0,5.0,55,0.01,,,0.15,,2013-02-24 22:52:00,
2013-02-24 17:02:00,40.0,25.0,30.09,SE,143,3.0,5.0,55,0.01,,,0.15,,2013-02-24 23:02:00,
2013-02-24 17:11:00,40.0,25.0,30.09,SE,143,3.0,5.0,55,0.01,,,0.15,,2013-02-24 23:11:00,
2013-02-24 17:21:00,39.0,25.0,30.09,East,81,2.0,6.0,58,0.00,,,0.13,,2013-02-24 23:21:00,
2013-02-24 17:31:00,39.0,25.0,30.09,East,81,2.0,6.0,58,0.00,,,0.13,,2013-02-24 23:31:00,
2013-02-24 17:42:00,39.0,25.0,30.09,East,81,2.0,6.0,58,0.00,,,0.13,,2013-02-24 23:42:00,
2013-02-24 17:52:00,37.0,25.0,30.09,East,81,3.0,5.0,61,0.00,,,0.13,,2013-02-24 23:52:00,
2013-02-24 18:01:00,37.0,25.0,30.09,East,81,3.0,5.0,61,0.00,,,0.13,,2013-02-25 00:01:00,
2013-02-24 18:11:00,37.0,25.0,30.09,East,81,3.0,5.0,61,0.00,,,0.13,,2013-02-25 00:11:00,
2013-02-24 18:21:00,35.0,26.0,30.09,East,81,3.0,6.0,68,0.00,,,0.13,,2013-02-25 00:21:00,
2013-02-24 18:31:00,35.0,26.0,30.09,East,81,3.0,6.0,68,0.00,,,0.13,,2013-02-25 00:31:00,
2013-02-24 18:42:00,35.0,26.0,30.09,East,81,3.0,6.0,68,0.00,,,0.13,,2013-02-25 00:42:00,
2013-02-24 18:52:00,34.0,25.0,30.10,East,81,2.0,3.0,70,0.00,,,0.13,,2013-02-25 00:52:00,
2013-02-24 19:01:00,34.0,25.0,30.10,East,81,2.0,3.0,70,0.00,,,0.13,,2013-02-25 01:01:00,
2013-02-24 19:11:00,34.0,25.0,30.10,East,81,2.0,3.0,70,0.00,,,0.13,,2013-02-25 01:11:00,
2013-02-24 19:21:00,34.0,25.0,30.10,East,81,2.0,3.0,70,0.00,,,0.13,,2013-02-25 01:21:00,
2013-02-24 19:31:00,34.0,25.0,30.10,East,81,2.0,3.0,70,0.00,,,0.13,,2013-02-25 01:31:00,
2013-02-24 19:52:00,33.0,25.0,30.10,East,81,0.0,2.0,72,0.00,,,0.13,,2013-02-25 01:52:00,
2013-02-24 20:01:00,33.0,25.0,30.10,East,81,0.0,2.0,72,0.00,,,0.13,,2013-02-25 02:01:00,
2013-02-24 20:11:00,32.0,25.0,30.10,East,81,0.0,2.0,74,0.00,,,0.13,,2013-02-25 02:11:00,
2013-02-24 20:21:00,32.0,25.0,30.10,East,81,0.0,2.0,74,0.00,,,0.13,,2013-02-25 02:21:00,
2013-02-24 20:31:00,32.0,25.0,30.10,East,81,0.0,2.0,74,0.00,,,0.13,,2013-02-25 02:31:00,
2013-02-24 20:42:00,32.0,25.0,30.10,East,81,0.0,2.0,74,0.00,,,0.13,,2013-02-25 02:42:00,
2013-02-24 20:52:00,31.0,25.0,30.10,East,82,3.0,6.0,77,0.00,,,0.13,,2013-02-25 02:52:00,
2013-02-24 21:01:00,31.0,25.0,30.10,East,82,3.0,6.0,77,0.00,,,0.13,,2013-02-25 03:01:00,
2013-02-24 21:11:00,31.0,25.0,30.10,East,82,3.0,6.0,77,0.00,,,0.13,,2013-02-25 03:11:00,
2013-02-24 21:21:00,30.0,25.0,30.10,East,82,2.0,5.0,80,0.00,,,0.13,,2013-02-25 03:21:00,
2013-02-24 21:31:00,30.0,25.0,30.10,East,82,2.0,5.0,80,0.00,,,0.13,,2013-02-25 03:31:00,
2013-02-24 21:42:00,30.0,25.0,30.10,East,82,2.0,5.0,80,0.00,,,0.13,,2013-02-25 03:42:00,
2013-02-24 21:52:00,31.0,26.0,30.09,ENE,65,3.0,7.0,80,0.00,,,0.13,,2013-02-25 03:52:00,
2013-02-24 22:01:00,31.0,26.0,30.09,ENE,65,3.0,7.0,80,0.00,,,0.13,,2013-02-25 04:01:00,
2013-02-24 22:11:00,31.0,26.0,30.09,ENE,65,3.0,7.0,80,0.00,,,0.13,,2013-02-25 04:11:00,
2013-02-24 22:21:00,31.0,25.0,30.10,ENE,65,1.0,4.0,79,0.00,,,0.13,,2013-02-25 04:21:00,
2013-02-24 22:31:00,31.0,25.0,30.10,ENE,65,1.0,4.0,79,0.00,,,0.13,,2013-02-25 04:31:00,
2013-02-24 22:42:00,31.0,25.0,30.10,ENE,65,1.0,4.0,79,0.00,,,0.13,,2013-02-25 04:42:00,
2013-02-24 22:52:00,30.0,25.0,30.09,ENE,71,3.0,5.0,81,0.00,,,0.13,,2013-02-25 04:52:00,
2013-02-24 23:01:00,30.0,25.0,30.09,ENE,71,3.0,5.0,81,0.00,,,0.13,,2013-02-25 05:01:00,
2013-02-24 23:11:00,30.0,25.0,30.09,ENE,71,3.0,5.0,81,0.00,,,0.13,,2013-02-25 05:11:00,
2013-02-24 23:22:00,31.0,26.0,30.09,East,82,4.0,7.0,80,0.00,,,0.13,,2013-02-25 05:22:00,
2013-02-24 23:31:00,31.0,26.0,30.09,East,82,4.0,7.0,80,0.00,,,0.13,,2013-02-25 05:31:00,
2013-02-24 23:42:00,31.0,26.0,30.09,East,82,4.0,7.0,80,0.00,,,0.13,,2013-02-25 05:42:00,
2013-02-24 23:52:00,31.0,26.0,30.07,East,80,4.0,8.0,80,0.00,,,0.13,,2013-02-25 05:52:00,